EDT,Max TemperatureF,Mean TemperatureF,Min TemperatureF,Max Dew PointF,MeanDew PointF,Min DewpointF,Max Humidity, Mean Humidity, Min Humidity, Max Sea Level PressureIn, Mean Sea Level PressureIn, Min Sea Level PressureIn, Max VisibilityMiles, Mean VisibilityMiles, Min VisibilityMiles, Max Wind SpeedMPH, Mean Wind SpeedMPH, Max Gust SpeedMPH,PrecipitationIn, CloudCover, Events, WindDirDegrees
2011-10-1,71,61,51,48,42,36,82,51,28,29.96,29.91,29.86,10,10,10,14,5,21,0.00,0,,270
2011-10-2,71,56,41,48,42,37,93,61,33,30.09,30.04,29.98,10,10,10,10,2,,0.00,0,,241
2011-10-3,75,58,41,48,40,36,93,54,25,30.18,30.12,30.08,10,10,10,10,4,,0.00,0,,264
2011-10-4,78,62,46,50,47,45,100,68,34,30.26,30.21,30.16,10,10,10,8,2,,0.00,0,,345
2011-10-5,80,64,48,57,52,48,100,72,36,30.28,30.22,30.16,10,10,10,7,1,,0.00,0,,346
2011-10-6,80,65,50,57,52,48,100,74,34,30.30,30.25,30.21,10,10,10,14,2,20,0.00,0,,360
2011-10-7,78,66,55,57,54,52,94,69,44,30.37,30.32,30.29,10,10,7,15,7,21,0.00,0,,346
2011-10-8,78,68,57,57,54,52,88,67,44,30.42,30.36,30.31,10,10,10,16,8,21,0.00,0,,343
2011-10-9,75,68,62,64,56,46,94,66,52,30.31,30.25,30.16,10,10,2,20,11,26,0.00,3,,352
2011-10-10,71,68,64,66,64,61,100,87,69,30.15,30.05,29.97,10,9,1,22,12,30,0.04,7,Rain,351
2011-10-11,68,66,64,66,63,61,100,92,88,29.95,29.91,29.87,10,9,3,15,12,23,0.00,8,,355
2011-10-12,71,66,62,70,66,63,100,96,83,29.87,29.83,29.78,10,7,1,0,0,,0.53,8,Rain,-1
2011-10-13,80,73,66,66,64,61,100,83,51,29.81,29.74,29.64,10,8,1,13,3,20,0.07,6,,227
2011-10-14,78,68,57,57,53,45,100,69,30,29.86,29.79,29.71,10,10,8,16,6,32,0.00,0,,259
2011-10-15,82,66,50,54,49,45,94,59,26,30.06,30.01,29.96,10,10,10,14,3,21,0.00,0,,260
2011-10-16,82,64,46,55,48,43,100,64,28,30.17,30.11,30.05,10,10,10,5,0,,0.00,0,,190
2011-10-17,87,68,48,57,53,48,100,68,31,30.07,30.00,29.90,10,10,9,6,1,,0.00,0,,246
2011-10-18,78,66,55,70,62,54,100,92,65,29.91,29.83,29.67,10,6,0,16,1,24,0.31,4,Fog-Rain,152
2011-10-19,75,65,55,72,64,43,100,88,63,29.63,29.48,29.41,10,7,2,20,4,28,0.65,8,Rain,241
2011-10-20,62,54,46,46,41,39,87,64,45,29.99,29.86,29.72,10,10,10,15,9,24,0.00,4,,248
2011-10-21,66,52,39,46,41,37,100,69,35,30.14,30.08,30.04,10,10,10,9,2,16,0.00,0,,263
2011-10-22,68,52,37,48,42,36,100,75,40,30.15,30.11,30.07,10,10,9,13,1,16,0.00,0,,30
2011-10-23,69,54,39,52,45,37,100,73,43,30.15,30.10,30.05,10,10,10,10,1,,0.00,0,,52
2011-10-24,75,58,42,54,47,41,100,75,38,30.15,30.11,30.07,10,10,10,8,1,,0.00,0,,305
2011-10-25,75,60,44,55,49,43,100,73,38,30.26,30.20,30.15,10,10,10,10,1,,0.00,0,,77
2011-10-26,78,61,44,57,49,45,100,76,32,30.21,30.13,30.00,10,9,0,9,1,,0.00,1,Fog,219
2011-10-27,80,66,51,61,53,50,100,73,37,30.01,29.94,29.87,10,10,9,14,2,23,0.00,3,,245
2011-10-28,73,60,48,59,54,48,100,81,57,30.00,29.95,29.92,10,10,7,10,2,,0.00,2,,73
2011-10-29,62,54,46,52,44,32,100,73,34,30.06,29.98,29.90,10,9,2,15,7,21,0.00,5,,351
2011-10-30,62,47,32,39,34,32,100,62,32,30.33,30.25,30.17,10,10,10,14,4,17,0.00,0,,56
2011-10-31,64,52,41,48,43,37,87,70,52,30.29,30.22,30.14,10,10,10,12,2,16,0.00,5,,29